This demonstration page uses our WeatherBlox Daily Observations layout. Learn more.

40.92945, -100.16068

Hourly Observations for July 31, 2019

Temp ( °F °C ) Dew Point ( °F °C ) Humidity (%) Winds ( mph kmh ) Pressure ( in mb ) Visibility ( mi km ) Precip ( " mm )
12:15 am 00:15 Clear 71 21.5 63 17.2 77 77 ESE 14 22 29.91 1013 10 16.09344 0 0
12:35 am 00:35 Clear 70 21.2 63 17.1 78 78 ESE 13 20 29.91 1013 10 16.09344 0 0
12:55 am 00:55 Clear 70 21.1 63 17.1 78 78 ESE 12 19 29.91 1013 10 16.09344 0 0
1:15 am 01:15 Clear 70 21 63 17 78 78 SE 15 24 29.91 1013 10 16.09344 0 0
1:35 am 01:35 Clear 69 20.7 63 17 79 79 ESE 13 20 29.91 1013 10 16.09344 0 0
1:55 am 01:55 Clear 69 20.4 63 17 81 81 SE 10 17 29.91 1013 10 16.09344 0 0
2:15 am 02:15 Clear 68 20 63 17 83 83 ESE 9 15 29.88 1012 10 16.09344 0 0
2:35 am 02:35 Clear 68 19.8 62 16.9 83 83 SE 10 17 29.88 1012 10 16.09344 0 0
2:55 am 02:55 Clear 68 20.1 62 16.7 81 81 SE 13 20 29.88 1012 10 16.09344 0 0
3:15 am 03:15 Clear 68 20.1 62 16.6 80 80 SE 13 20 29.88 1012 10 16.09344 0 0
3:35 am 03:35 Clear 68 20.1 62 16.5 80 80 SE 13 20 29.85 1011 10 16.09344 0 0
3:55 am 03:55 Clear 68 20 62 16.6 81 81 SE 10 17 29.85 1011 10 16.09344 0 0
4:15 am 04:15 Clear 68 19.8 62 16.6 82 82 SE 9 15 29.85 1011 10 16.09344 0 0
4:35 am 04:35 Clear 67 19.6 62 16.6 83 83 SE 10 17 29.85 1011 10 16.09344 0 0
4:55 am 04:55 Clear 68 19.9 62 16.7 82 82 SE 9 15 29.85 1011 10 16.09344 0 0
5:15 am 05:15 Clear 67 19.5 62 16.8 84 84 ESE 8 13 29.85 1011 10 16.09344 0 0
5:35 am 05:35 Clear 67 19.5 62 16.9 85 85 ESE 7 11 29.85 1011 10 16.09344 0 0
5:55 am 05:55 Clear 67 19.2 63 17 87 87 SE 8 13 29.88 1012 10 16.09344 0 0
6:15 am 06:15 Clear 66 19 63 17 88 88 SE 6 9 29.91 1013 10 16.09344 0 0
6:35 am 06:35 Sunny 65 18.5 63 17 91 91 SE 6 9 29.91 1013 10 16.09344 0 0
6:55 am 06:55 Sunny 66 19 63 17.2 89 89 ESE 7 11 29.91 1013 10 16.09344 0 0
7:15 am 07:15 Sunny 67 19.6 64 17.5 88 88 SE 9 15 29.88 1012 10 16.09344 0 0
7:35 am 07:35 Sunny 68 19.9 64 17.5 86 86 SE 9 15 29.88 1012 10 16.09344 0 0
7:55 am 07:55 Sunny 69 20.5 64 17.9 85 85 SE 9 15 29.88 1012 10 16.09344 0 0
8:15 am 08:15 Sunny 70 21 65 18.2 84 84 SSE 6 9 29.88 1012 10 16.09344 0 0
8:35 am 08:35 Sunny 71 21.6 65 18.2 81 81 SE 9 15 29.88 1012 10 16.09344 0 0
8:55 am 08:55 Partly Cloudy 71 21.5 65 18.4 83 83 NW 3 6 29.91 1013 10 16.09344 0 0
9:15 am 09:15 Sunny 71 21.5 65 18.6 84 84 NNE 6 9 29.94 1014 10 16.09344 0 0
9:35 am 09:35 Sunny 73 22.5 66 18.8 80 80 E 8 13 29.94 1014 10 16.09344 0 0
9:55 am 09:55 Sunny 74 23.3 66 19 77 77 ESE 8 13 29.91 1013 10 16.09344 0 0
10:15 am 10:15 Sunny 74 23.5 66 19 76 76 E 9 15 29.88 1012 10 16.09344 0 0
10:35 am 10:35 Sunny 76 24.2 66 19 73 73 ESE 8 13 29.88 1012 10 16.09344 0 0
10:55 am 10:55 Sunny 77 24.9 67 19.2 71 71 SE 12 19 29.88 1012 10 16.09344 0 0
11:15 am 11:15 Sunny 78 25.3 67 19.5 70 70 ESE 9 15 29.88 1012 10 16.09344 0 0
11:35 am 11:35 Sunny 79 26.1 67 19.3 66 66 SE 8 13 29.88 1012 10 16.09344 0 0
11:55 am 11:55 Sunny 79 26.3 67 19.3 65 65 SE 9 15 29.88 1012 10 16.09344 0 0
12:15 pm 12:15 Sunny 80 26.4 68 20.1 68 68 E 8 13 29.88 1012 10 16.09344 0 0
12:35 pm 12:35 Sunny 78 25.4 68 19.8 71 71 ESE 8 13 29.88 1012 10 16.09344 0 0
12:55 pm 12:55 Sunny 78 25.5 67 19.5 70 70 E 7 11 29.88 1012 10 16.09344 0 0
1:15 pm 13:15 Sunny 78 25.8 68 20 70 70 ENE 8 13 29.91 1013 10 16.09344 0 0
1:35 pm 13:35 Sunny 78 25.8 69 20.3 72 72 ENE 8 13 29.91 1013 10 16.09344 0 0
1:55 pm 13:55 Sunny 81 27.2 69 20.8 68 68 ENE 9 15 29.91 1013 10 16.09344 0 0
2:15 pm 14:15 Sunny 82 27.9 70 21 66 66 ENE 10 17 29.88 1012 10 16.09344 0 0
2:35 pm 14:35 Partly Cloudy 82 28 70 20.9 65 65 E 7 11 29.88 1012 10 16.09344 0 0
2:55 pm 14:55 Mostly Cloudy 82 27.8 70 21.1 67 67 ENE 9 15 29.88 1012 10 16.09344 0 0
3:15 pm 15:15 Mostly Cloudy 83 28.3 70 21.2 65 65 E 8 13 29.88 1012 10 16.09344 0 0
3:35 pm 15:35 Sunny 84 28.7 70 21.2 64 64 E 9 15 29.88 1012 10 16.09344 0 0
3:55 pm 15:55 Sunny 85 29.2 70 21.2 62 62 E 13 20 29.88 1012 10 16.09344 0 0
4:15 pm 16:15 Sunny 85 29.3 70 21.3 62 62 ENE 10 17 29.88 1012 10 16.09344 0 0
4:35 pm 16:35 Sunny 85 29.5 71 21.5 62 62 E 10 17 29.88 1012 10 16.09344 0 0
4:55 pm 16:55 Sunny 85 29.7 71 21.8 63 63 E 10 17 29.85 1011 10 16.09344 0 0
5:15 pm 17:15 Sunny 85 29.4 71 21.8 64 64 E 13 20 29.85 1011 10 16.09344 0 0
5:35 pm 17:35 Sunny 85 29.5 72 22.1 64 64 E 13 20 29.85 1011 10 16.09344 0 0
5:55 pm 17:55 Sunny 85 29.5 72 22.1 64 64 ENE 14 22 29.85 1011 10 16.09344 0 0
6:15 pm 18:15 Sunny 85 29.5 72 22.1 64 64 E 14 22 29.85 1011 10 16.09344 0 0
6:35 pm 18:35 Sunny 85 29.2 72 22.2 66 66 E 13 20 29.85 1011 10 16.09344 0 0
7:15 pm 19:15 Sunny 83 28.4 72 22.4 70 70 E 10 17 29.85 1011 10 16.09344 0 0
7:35 pm 19:35 Sunny 83 28.2 72 22.4 71 71 E 14 22 29.85 1011 10 16.09344 0 0
7:55 pm 19:55 Sunny 82 27.5 73 22.5 74 74 E 13 20 29.85 1011 10 16.09344 0 0
8:15 pm 20:15 Sunny 80 26.7 73 22.5 78 78 E 12 19 29.88 1012 10 16.09344 0 0
8:35 pm 20:35 Sunny 78 25.8 73 22.5 82 82 ENE 9 15 29.88 1012 10 16.09344 0 0
8:55 pm 20:55 Sunny 78 25.4 72 22.2 83 83 E 16 26 29.88 1012 10 16.09344 0 0
9:15 pm 21:15 Clear 76 24.7 71 21.5 82 82 E 10 17 29.88 1012 10 16.09344 0 0
9:35 pm 21:35 Clear 76 24.2 69 20.8 81 81 E 12 19 29.91 1013 10 16.09344 0 0
9:55 pm 21:55 Clear 74 23.5 68 20.1 81 81 E 12 19 29.94 1014 10 16.09344 0 0
10:15 pm 22:15 Clear 74 23.1 67 19.6 81 81 E 10 17 29.94 1014 10 16.09344 0 0
10:35 pm 22:35 Clear 73 22.6 67 19.3 82 82 E 10 17 29.94 1014 10 16.09344 0 0
10:55 pm 22:55 Clear 72 22.2 66 19.1 83 83 E 7 11 29.94 1014 10 16.09344 0 0
11:15 pm 23:15 Clear 71 21.6 66 19.1 86 86 ENE 8 13 29.94 1014 10 16.09344 0 0
11:35 pm 23:35 Clear 70 21.2 66 19 87 87 E 8 13 29.94 1014 10 16.09344 0 0
11:55 pm 23:55 Clear 69 20.7 66 19 90 90 E 8 13 29.94 1014 10 16.09344 0 0

Powered by AerisWeather